Change the Weather History Date:

Saturday, March 30, 2013

  Actual Average Record
Temperature  
Mean Temperature 48 °F -  
Max Temperature 62 °F 48 °F 68 °F (2003)
Min Temperature 34 °F 30 °F 24 °F (2008)
Degree Days  
Heating Degree Days 17    
Moisture  
Dew Point 36 °F    
Average Humidity 64    
Maximum Humidity 90    
Minimum Humidity 35    
Precipitation  
Precipitation 0.00 in - - ()
Sea Level Pressure  
Sea Level Pressure 30.23 in    
Wind  
Wind Speed 4 mph (SSE)    
Max Wind Speed 7 mph    
Max Gust Speed -    
Visibility 10 miles    
Events Rain    
Averages and records for this station are not official NWS values.
T = Trace of Precipitation, MM = Missing Value Source: NWS Daily Summary

Daily Weather History Graph

Daily Weather History Graph

Search for Another Location

Airport or City:

Trip Planner

Search our weather history database for the weather conditions in past years. The results will help you decide how hot, cold, wet, or windy it might be!

Date:

Astronomy

Mar. 30, 2013 Rise Set
Actual Time 6:32 AM PDT 7:18 PM PDT
Civil Twilight 6:01 AM PDT 7:49 PM PDT
Nautical Twilight 5:24 AM PDT 8:26 PM PDT
Astronomical Twilight 4:45 AM PDT 9:05 PM PDT
Moon 11:47 PM PDT (3/30) 8:15 AM PDT (3/30)
Length of Visible Light 13h 47m
Length of Day
12h 45m
Waning Gibbous, 85% of the Moon is Illuminated
Mar 30
Waning Gibbous
Apr 2
Last Quarter
Apr 10
New
Apr 18
First Quarter
Apr 25
Full

Hourly Weather History & Observations

Time (PDT) Temp. Windchill Dew Point Humidity Pressure Visibility Wind Dir Wind Speed Gust Speed Precip Events Conditions
12:21 AM 42.8 °F 40.1 °F 32.0 °F 66% 30.20 in 10.0 mi South 4.6 mph - N/A   Clear
12:30 AM 42.8 °F 40.1 °F 32.0 °F 66% 30.20 in 10.0 mi South 4.6 mph - N/A   Clear
12:58 AM 43.9 °F 41.3 °F 32.5 °F 64% 30.21 in 10.0 mi SSW 4.6 mph - 0.00 in   Clear
1:26 AM 44.6 °F 43.1 °F 32.0 °F 61% 30.21 in 10.0 mi SSE 3.5 mph - N/A   Clear
1:36 AM 44.6 °F 43.1 °F 32.0 °F 61% 30.21 in 10.0 mi South 3.5 mph - N/A   Clear
1:58 AM 44.2 °F - 33.3 °F 65% 30.21 in 10.0 mi Calm Calm - 0.00 in   Clear
2:58 AM 37.2 °F - 32.0 °F 81% 30.23 in 10.0 mi Calm Calm - N/A   Clear
3:58 AM 35.6 °F 32.8 °F 32.0 °F 87% 30.23 in 10.0 mi ESE 3.5 mph - N/A   Clear
4:58 AM 36.0 °F - 31.8 °F 85% 30.27 in 10.0 mi ESE 2.3 mph - N/A   Clear
5:58 AM 37.4 °F - 33.4 °F 86% 30.26 in 10.0 mi East 1.2 mph - N/A   Clear
6:00 AM 37.4 °F - 32.0 °F 81% 30.23 in 10.0 mi East 2.3 mph - N/A   Clear
6:09 AM 37.4 °F - 32.0 °F 81% 30.24 in 10.0 mi East 2.3 mph - N/A   Clear
6:58 AM 34.5 °F 30.4 °F 32.0 °F 90% 30.30 in 10.0 mi ENE 4.6 mph - 0.00 in   Clear
7:58 AM 39.0 °F - 36.0 °F 89% 30.30 in 10.0 mi NE 1.2 mph - N/A   Clear
8:58 AM 45.5 °F 42.5 °F 39.6 °F 80% 30.31 in 10.0 mi NE 5.8 mph - N/A   Clear
9:58 AM 49.1 °F - 40.6 °F 73% 30.30 in 10.0 mi NE 3.5 mph - N/A   Clear
10:16 AM 51.8 °F - 42.8 °F 71% 30.26 in 10.0 mi Variable 3.5 mph - N/A Rain Light Rain
10:24 AM 51.8 °F - 42.8 °F 71% 30.26 in 10.0 mi SSE 2.3 mph - N/A   Clear
10:43 AM 53.6 °F - 42.8 °F 67% 30.26 in 10.0 mi SE 4.6 mph - N/A Rain Light Rain
10:53 AM 53.6 °F - 42.8 °F 67% 30.26 in 10.0 mi East 3.5 mph - N/A   Clear
10:58 AM 54.1 °F - 42.3 °F 64% 30.28 in 10.0 mi Variable 2.3 mph - 0.00 in   Clear
10:59 AM 53.6 °F - 42.8 °F 67% 30.26 in 10.0 mi Variable 3.5 mph - N/A Rain Light Rain
11:00 AM 53.6 °F - 42.8 °F 67% 30.26 in 10.0 mi Variable 3.5 mph - N/A   Clear
11:58 AM 57.2 °F - 41.2 °F 55% 30.28 in 10.0 mi SSW 5.8 mph - 0.00 in   Clear
12:58 PM 60.1 °F - 38.7 °F 45% 30.27 in 10.0 mi South 6.9 mph - N/A   Scattered Clouds
1:58 PM 60.6 °F - 37.8 °F 43% 30.25 in 10.0 mi Variable 3.5 mph - N/A   Clear
2:58 PM 61.5 °F - 35.6 °F 38% 30.23 in 10.0 mi Variable 3.5 mph - N/A   Clear
3:58 PM 62.2 °F - 34.0 °F 35% 30.21 in 10.0 mi Variable 4.6 mph - N/A   Clear
4:58 PM 61.3 °F - 34.9 °F 37% 30.20 in 10.0 mi South 4.6 mph - N/A   Clear
5:58 PM 61.2 °F - 34.7 °F 37% 30.17 in 10.0 mi ESE 4.6 mph - N/A   Clear
6:58 PM 58.1 °F - 34.9 °F 42% 30.17 in 10.0 mi South 4.6 mph - N/A   Clear
7:58 PM 54.3 °F - 35.2 °F 49% 30.16 in 10.0 mi South 4.6 mph - N/A   Clear
8:58 PM 51.4 °F - 34.2 °F 52% 30.16 in 10.0 mi SW 3.5 mph - N/A   Clear
9:58 PM 49.6 °F - 34.9 °F 57% 30.15 in 10.0 mi SW 2.3 mph - N/A   Clear
10:58 PM 45.7 °F 44.4 °F 33.4 °F 62% 30.14 in 10.0 mi SW 3.5 mph - N/A   Clear
11:58 PM 40.6 °F 38.6 °F 33.1 °F 74% 30.13 in 10.0 mi SSW 3.5 mph - N/A   Clear